TimeMST,TemperatureF,Dew PointF,Humidity,Sea Level PressureIn,VisibilityMPH,Wind Direction,Wind SpeedMPH,Gust SpeedMPH,PrecipitationIn,Events,Conditions,WindDirDegrees,DateUTC
12:53 AM,28.9,25.0,85,30.28,10.0,NNW,5.8,-,N/A,,Mostly Cloudy,340,2012-11-15 07:53:00
1:53 AM,26.1,24.1,92,30.32,10.0,NNW,4.6,-,N/A,,Partly Cloudy,330,2012-11-15 08:53:00
2:53 AM,25.0,21.9,88,30.33,10.0,Calm,Calm,-,N/A,,Clear,0,2012-11-15 09:53:00
3:53 AM,21.9,19.0,89,30.35,10.0,Calm,Calm,-,N/A,,Clear,0,2012-11-15 10:53:00
4:53 AM,21.0,18.0,88,30.38,10.0,Calm,Calm,-,N/A,,Clear,0,2012-11-15 11:53:00
5:53 AM,21.9,19.9,92,30.38,10.0,Calm,Calm,-,N/A,,Clear,0,2012-11-15 12:53:00
6:53 AM,18.0,14.0,84,30.42,10.0,Calm,Calm,-,N/A,,Clear,0,2012-11-15 13:53:00
7:53 AM,25.0,21.9,88,30.41,10.0,North,3.5,-,N/A,,Clear,360,2012-11-15 14:53:00
8:53 AM,30.0,25.0,82,30.40,10.0,Calm,Calm,-,N/A,,Scattered Clouds,0,2012-11-15 15:53:00
9:53 AM,37.0,27.0,67,30.38,10.0,WSW,6.9,-,N/A,,Clear,240,2012-11-15 16:53:00
10:53 AM,42.1,28.0,58,30.35,10.0,South,6.9,-,N/A,,Clear,170,2012-11-15 17:53:00
11:53 AM,45.0,26.1,48,30.30,10.0,South,15.0,24.2,N/A,,Clear,190,2012-11-15 18:53:00
12:53 PM,46.0,25.0,44,30.27,10.0,SSW,13.8,20.7,N/A,,Clear,200,2012-11-15 19:53:00
1:53 PM,46.0,23.0,40,30.27,10.0,WSW,15.0,-,N/A,,Partly Cloudy,240,2012-11-15 20:53:00
2:53 PM,45.0,21.9,40,30.27,10.0,WSW,16.1,-,N/A,,Clear,240,2012-11-15 21:53:00
3:53 PM,44.1,21.9,42,30.27,10.0,SW,12.7,-,N/A,,Clear,220,2012-11-15 22:53:00
4:53 PM,36.0,21.0,55,30.30,10.0,SSW,6.9,-,N/A,,Clear,210,2012-11-15 23:53:00
5:53 PM,32.0,21.9,66,30.31,10.0,WSW,8.1,-,N/A,,Clear,250,2012-11-16 00:53:00
6:53 PM,34.0,23.0,64,30.31,10.0,WSW,6.9,-,N/A,,Clear,250,2012-11-16 01:53:00
7:53 PM,33.1,24.1,70,30.28,10.0,West,10.4,-,N/A,,Clear,270,2012-11-16 02:53:00
8:53 PM,34.0,24.1,67,30.26,10.0,WSW,11.5,-,N/A,,Clear,240,2012-11-16 03:53:00
9:53 PM,32.0,24.1,73,30.23,10.0,SW,12.7,-,N/A,,Clear,220,2012-11-16 04:53:00
10:53 PM,35.1,24.1,64,30.18,10.0,SW,13.8,-,N/A,,Clear,230,2012-11-16 05:53:00
11:53 PM,36.0,24.1,62,30.16,10.0,SW,10.4,-,N/A,,Clear,230,2012-11-16 06:53:00